Fehlermeldung bei Updates

16/08/2008 - 17:21 von Marius Appenzeller | Report spam
Hallo NG

Mein System: XP Pro 32bit SP3 autom. Microsoft-Updates ein (IE7 NICHT
installiert)
Seit kurzem habe ich folgendes Problem mit Updates.

Die letzten Updates (vom letzten Patchday) werden heruntergeladen aber
nicht installiert.

Das Log des letzten Versuchs sieht so aus:

2008-08-16 17:09:15:593 2084 160 COMAPI -
2008-08-16 17:09:15:609 2084 160 COMAPI -- START -- COMAPI: Install
[ClientId = MicrosoftUpdate]
2008-08-16 17:09:15:609 2084 160 COMAPI
2008-08-16 17:09:15:609 2084 160 COMAPI - Allow source prompts: Yes;
Forced: No; Force quiet: No
2008-08-16 17:09:15:609 2084 160 COMAPI - Updates in request: 6
2008-08-16 17:09:15:609 2084 160 COMAPI - ServiceID =
{7971F918-A847-4430-9279-4A52D1EFE18D}
2008-08-16 17:09:15:671 220 cb0 Agent *************
2008-08-16 17:09:15:671 220 cb0 Agent ** START ** Agent: Installing
updates [CallerId = MicrosoftUpdate]
2008-08-16 17:09:15:671 2084 160 COMAPI - Updates to install = 6
2008-08-16 17:09:15:671 2084 160 COMAPI <<-- SUBMITTED -- COMAPI:
Install [ClientId = MicrosoftUpdate]
2008-08-16 17:09:15:687 220 cb0 Agent *********
2008-08-16 17:09:15:687 220 cb0 Agent * Updates to install = 6
2008-08-16 17:09:15:843 220 cb0 Agent * Title = Sicherheitsupdate
für Microsoft Office Excel 2003 (KB951548)
2008-08-16 17:09:15:843 220 cb0 Agent * UpdateId =
{A8D2EE29-B6E4-481F-AC97-3E57703E663A}.101
2008-08-16 17:09:15:843 220 cb0 Agent * Bundles 1 updates:
2008-08-16 17:09:15:843 220 cb0 Agent *
{E9030EE4-B527-4A0F-8F3B-5F1A6E545498}.101
2008-08-16 17:09:15:843 220 cb0 Agent * Title = Sicherheitsupdate
für Microsoft Office 2003 (KB921598)
2008-08-16 17:09:15:843 220 cb0 Agent * UpdateId =
{AE97D343-7C0D-4C06-9A62-67EFF01890A9}.100
2008-08-16 17:09:15:843 220 cb0 Agent * Bundles 1 updates:
2008-08-16 17:09:15:843 220 cb0 Agent *
{59942944-F82C-4FCB-AEEE-F28311BC1EF3}.100
2008-08-16 17:09:15:843 220 cb0 Agent * Title = Update für den
Junk-E-Mail-Filter von Microsoft Office Outlook 2003 (KB955434)
2008-08-16 17:09:15:843 220 cb0 Agent * UpdateId =
{7FB0A046-FEA7-4975-9EA5-2BB4E15D80B3}.101
2008-08-16 17:09:15:843 220 cb0 Agent * Bundles 1 updates:
2008-08-16 17:09:15:843 220 cb0 Agent *
{127AF7C5-6AE8-499C-B8EC-41C0B3A0AC30}.101
2008-08-16 17:09:15:843 220 cb0 Agent * Title = Sicherheitsupdate
für Microsoft Office PowerPoint 2003 (KB948988)
2008-08-16 17:09:15:843 220 cb0 Agent * UpdateId =
{FD238246-F66A-43CE-8D31-3A74AE471EA5}.101
2008-08-16 17:09:15:843 220 cb0 Agent * Bundles 1 updates:
2008-08-16 17:09:15:843 220 cb0 Agent *
{F66A3AF1-9A47-40EB-87F8-33474E1C09B3}.101
2008-08-16 17:09:15:843 220 cb0 Agent * Title = Sicherheitsupdate
für Access Snapshot Viewer 2003 (KB955439)
2008-08-16 17:09:15:843 220 cb0 Agent * UpdateId =
{F6E3E036-EAF1-4423-9EAB-9359A23FCB9E}.101
2008-08-16 17:09:15:843 220 cb0 Agent * Bundles 1 updates:
2008-08-16 17:09:15:843 220 cb0 Agent *
{DB1E4477-9A79-46CD-8166-C82D5EB227E0}.101
2008-08-16 17:09:15:843 220 cb0 Agent * Title = Sicherheitsupdate
für Microsoft Office Word 2003 (KB954464)
2008-08-16 17:09:15:843 220 cb0 Agent * UpdateId =
{285601B8-5C07-4856-B4E6-847F053BE4CB}.101
2008-08-16 17:09:15:843 220 cb0 Agent * Bundles 1 updates:
2008-08-16 17:09:15:843 220 cb0 Agent *
{B6A60635-E227-4139-B7B1-694ABFBF1CBB}.101
2008-08-16 17:09:45:765 220 cb0 Handler Attempting to create remote
handler process as OEM-PC\oem-user in session 0
2008-08-16 17:09:47:109 220 cb0 DnldMgr Preparing update for install,
updateId = {E9030EE4-B527-4A0F-8F3B-5F1A6E545498}.101.
2008-08-16 17:09:47:125 3680 fe0 Misc == Logging initialized
(build: 7.2.6001.784, tz: +0200) 08-08-16 17:09:47:125 3680 fe0 Misc = Process:
C:\WINDOWS\system32\wuauclt.exe
2008-08-16 17:09:47:125 3680 fe0 Misc = Module:
C:\WINDOWS\system32\wuaueng.dll
2008-08-16 17:09:47:125 3680 fe0 Handler :::::::::::::
2008-08-16 17:09:47:125 3680 fe0 Handler :: START :: Handler: MSI Install
2008-08-16 17:09:47:125 3680 fe0 Handler :::::::::
2008-08-16 17:09:47:125 3680 fe0 Handler : Updates to install = 1
2008-08-16 17:09:47:140 3680 fe0 Handler Extracting MSP file stored in
CAB EXCEL.CAB
2008-08-16 17:09:47:343 3680 fe0 Handler MSP update
{00000000-0000-0000-0000-000000000000}.0 using full-file patch
2008-08-16 17:09:47:343 3680 fe0 Handler : Batch installing 1 updates
2008-08-16 17:09:51:343 3680 fe0 Handler List of MSPs in transaction:
2008-08-16 17:09:51:343 3680 fe0 Handler
C:\WINDOWS\SoftwareDistribution\Download\6d7e9c1c40c586449e86c6ff5a298bef\img\EXCEL.MSP
2008-08-16 17:09:51:343 3680 fe0 Handler MSP final command line:
DISABLESRCPROMPT=1 LOCALCACHESRCRES=0 NOLOCALCACHEROLLBACK=1
REBOOT=REALLYSUPPRESS
2008-08-16 17:10:16:343 3680 fe0 Handler MSP Error List:
2008-08-16 17:10:16:343 3680 fe0 Handler 1: 1327 2: E:\
2008-08-16 17:10:16:343 3680 fe0 Handler : MSI transaction completed.
MSI: 0x80070643, Handler: 0x8024200b, Source: No, Reboot: 0
2008-08-16 17:10:16:343 3680 fe0 Handler : WARNING: First failure for
update {E9030EE4-B527-4A0F-8F3B-5F1A6E545498}, transaction error =
0x8024200b, MSI result = 0x80070643, MSI action = SetLocalCacheFolder
2008-08-16 17:10:16:359 3680 fe0 Handler : WARNING: Operation failed
at update 0, Exit code = 0x8024200B
2008-08-16 17:10:16:359 3680 fe0 Handler :::::::::
2008-08-16 17:10:16:359 3680 fe0 Handler :: END :: Handler: MSI Install
2008-08-16 17:10:16:359 3680 fe0 Handler :::::::::::::
2008-08-16 17:10:16:390 220 cb0 DnldMgr Preparing update for install,
updateId = {59942944-F82C-4FCB-AEEE-F28311BC1EF3}.100.
2008-08-16 17:10:16:406 3680 bb4 Handler :::::::::::::
2008-08-16 17:10:16:406 3680 bb4 Handler :: START :: Handler: MSI Install
2008-08-16 17:10:16:406 3680 bb4 Handler :::::::::
2008-08-16 17:10:16:406 3680 bb4 Handler : Updates to install = 1
2008-08-16 17:10:16:421 3680 bb4 Handler Extracting MSP file stored in
CAB GPFILT.CAB
2008-08-16 17:10:16:453 3680 bb4 Handler MSP update
{00000000-0000-0000-0000-000000000000}.0 using full-file patch
2008-08-16 17:10:16:453 3680 bb4 Handler : Batch installing 1 updates
2008-08-16 17:10:19:765 3680 bb4 Handler List of MSPs in transaction:
2008-08-16 17:10:19:765 3680 bb4 Handler
C:\WINDOWS\SoftwareDistribution\Download\4d6cee1440a1cd0bebc2b16ed3a243d5\img\GPFILT.MSP
2008-08-16 17:10:19:765 3680 bb4 Handler MSP final command line:
DISABLESRCPROMPT=1 LOCALCACHESRCRES=0 NOLOCALCACHEROLLBACK=1
REBOOT=REALLYSUPPRESS
2008-08-16 17:10:21:406 220 d14 Report REPORT EVENT:
{684D952B-2E71-4F49-B8CA-2DB166A2CA4A} 2008-08-16
17:10:16:375+0200 1 182 101 {A8D2EE29-B6E4-481F-AC97-3E57703E663A}
101 80070643 MicrosoftUpdate Failure Content Install Installation
Failure: Windows failed to install the following update with error
0x80070643: Sicherheitsupdate für Microsoft Office Excel 2003 (KB951548).
2008-08-16 17:10:39:359 3680 bb4 Handler MSP Error List:
2008-08-16 17:10:39:359 3680 bb4 Handler 1: 1327 2: E:\
2008-08-16 17:10:39:359 3680 bb4 Handler : MSI transaction completed.
MSI: 0x80070643, Handler: 0x8024200b, Source: No, Reboot: 0
2008-08-16 17:10:39:375 3680 bb4 Handler : WARNING: First failure for
update {59942944-F82C-4FCB-AEEE-F28311BC1EF3}, transaction error =
0x8024200b, MSI result = 0x80070643, MSI action = SetLocalCacheFolder
2008-08-16 17:10:39:375 3680 bb4 Handler : WARNING: Operation failed
at update 0, Exit code = 0x8024200B
2008-08-16 17:10:39:375 3680 bb4 Handler :::::::::
2008-08-16 17:10:39:375 3680 bb4 Handler :: END :: Handler: MSI Install
2008-08-16 17:10:39:375 3680 bb4 Handler :::::::::::::
2008-08-16 17:10:39:406 220 cb0 DnldMgr Preparing update for install,
updateId = {127AF7C5-6AE8-499C-B8EC-41C0B3A0AC30}.101.
2008-08-16 17:10:39:406 3680 f74 Handler :::::::::::::
2008-08-16 17:10:39:406 3680 f74 Handler :: START :: Handler: MSI Install
2008-08-16 17:10:39:406 3680 f74 Handler :::::::::
2008-08-16 17:10:39:406 3680 f74 Handler : Updates to install = 1
2008-08-16 17:10:39:421 3680 f74 Handler Extracting MSP file stored in
CAB OUTLFLTR.CAB
2008-08-16 17:10:39:546 3680 f74 Handler MSP update
{00000000-0000-0000-0000-000000000000}.0 using full-file patch
2008-08-16 17:10:39:546 3680 f74 Handler : Batch installing 1 updates
2008-08-16 17:10:44:406 220 d14 Report REPORT EVENT:
{B860923A-7CD1-4EA8-B30A-6A76DCB0068E} 2008-08-16
17:10:39:390+0200 1 182 101 {AE97D343-7C0D-4C06-9A62-67EFF01890A9}
100 80070643 MicrosoftUpdate Failure Content Install Installation
Failure: Windows failed to install the following update with error
0x80070643: Sicherheitsupdate für Microsoft Office 2003 (KB921598).
2008-08-16 17:10:45:453 3680 f74 Handler List of MSPs in transaction:
2008-08-16 17:10:45:453 3680 f74 Handler
C:\WINDOWS\SoftwareDistribution\Download\8943b8a7fc67fa2b2e76fc0acd25583c\img\OUTLFLTR.MSP
2008-08-16 17:10:45:453 3680 f74 Handler MSP final command line:
DISABLESRCPROMPT=1 LOCALCACHESRCRES=0 NOLOCALCACHEROLLBACK=1
REBOOT=REALLYSUPPRESS
2008-08-16 17:11:05:000 3680 f74 Handler MSP Error List:
2008-08-16 17:11:05:000 3680 f74 Handler 1: 1327 2: E:\
2008-08-16 17:11:05:000 3680 f74 Handler : MSI transaction completed.
MSI: 0x80070643, Handler: 0x8024200b, Source: No, Reboot: 0
2008-08-16 17:11:05:000 3680 f74 Handler : WARNING: First failure for
update {127AF7C5-6AE8-499C-B8EC-41C0B3A0AC30}, transaction error =
0x8024200b, MSI result = 0x80070643, MSI action = SetLocalCacheFolder
2008-08-16 17:11:05:015 3680 f74 Handler : WARNING: Operation failed
at update 0, Exit code = 0x8024200B
2008-08-16 17:11:05:015 3680 f74 Handler :::::::::
2008-08-16 17:11:05:015 3680 f74 Handler :: END :: Handler: MSI Install
2008-08-16 17:11:05:015 3680 f74 Handler :::::::::::::
2008-08-16 17:11:05:031 220 cb0 DnldMgr Preparing update for install,
updateId = {F66A3AF1-9A47-40EB-87F8-33474E1C09B3}.101.
2008-08-16 17:11:05:046 3680 dc0 Handler :::::::::::::
2008-08-16 17:11:05:046 3680 dc0 Handler :: START :: Handler: MSI Install
2008-08-16 17:11:05:046 3680 dc0 Handler :::::::::
2008-08-16 17:11:05:046 3680 dc0 Handler : Updates to install = 1
2008-08-16 17:11:05:062 3680 dc0 Handler Extracting MSP file stored in
CAB POWERPNT.CAB
2008-08-16 17:11:05:218 3680 dc0 Handler MSP update
{00000000-0000-0000-0000-000000000000}.0 using full-file patch
2008-08-16 17:11:05:218 3680 dc0 Handler : Batch installing 1 updates
2008-08-16 17:11:10:078 220 d14 Report REPORT EVENT:
{330E4761-BA41-4C96-A2BF-83F2A69856E2} 2008-08-16
17:11:05:031+0200 1 182 101 {7FB0A046-FEA7-4975-9EA5-2BB4E15D80B3}
101 80070643 MicrosoftUpdate Failure Content Install Installation
Failure: Windows failed to install the following update with error
0x80070643: Update für den Junk-E-Mail-Filter von Microsoft Office
Outlook 2003 (KB955434).
2008-08-16 17:11:10:656 3680 dc0 Handler List of MSPs in transaction:
2008-08-16 17:11:10:656 3680 dc0 Handler
C:\WINDOWS\SoftwareDistribution\Download\adf8b1e22ed26baef204b60c6dff9bdc\img\POWERPNT.MSP
2008-08-16 17:11:10:656 3680 dc0 Handler MSP final command line:
DISABLESRCPROMPT=1 LOCALCACHESRCRES=0 NOLOCALCACHEROLLBACK=1
REBOOT=REALLYSUPPRESS
2008-08-16 17:11:30:937 3680 dc0 Handler MSP Error List:
2008-08-16 17:11:30:937 3680 dc0 Handler 1: 1327 2: E:\
2008-08-16 17:11:30:937 3680 dc0 Handler : MSI transaction completed.
MSI: 0x80070643, Handler: 0x8024200b, Source: No, Reboot: 0
2008-08-16 17:11:30:937 3680 dc0 Handler : WARNING: First failure for
update {F66A3AF1-9A47-40EB-87F8-33474E1C09B3}, transaction error =
0x8024200b, MSI result = 0x80070643, MSI action = SetLocalCacheFolder
2008-08-16 17:11:30:937 3680 dc0 Handler : WARNING: Operation failed
at update 0, Exit code = 0x8024200B
2008-08-16 17:11:30:937 3680 dc0 Handler :::::::::
2008-08-16 17:11:30:953 3680 dc0 Handler :: END :: Handler: MSI Install
2008-08-16 17:11:30:953 3680 dc0 Handler :::::::::::::
2008-08-16 17:11:30:968 220 cb0 DnldMgr Preparing update for install,
updateId = {DB1E4477-9A79-46CD-8166-C82D5EB227E0}.101.
2008-08-16 17:11:30:968 3680 bb4 Handler :::::::::::::
2008-08-16 17:11:30:968 3680 bb4 Handler :: START :: Handler: MSI Install
2008-08-16 17:11:30:968 3680 bb4 Handler :::::::::
2008-08-16 17:11:30:984 3680 bb4 Handler : Updates to install = 1
2008-08-16 17:11:31:000 3680 bb4 Handler Extracting MSP file stored in
CAB SNAPVIEW.CAB
2008-08-16 17:11:31:015 3680 bb4 Handler MSP update
{00000000-0000-0000-0000-000000000000}.0 using full-file patch
2008-08-16 17:11:31:015 3680 bb4 Handler : Batch installing 1 updates
2008-08-16 17:11:35:578 3680 bb4 Handler List of MSPs in transaction:
2008-08-16 17:11:35:578 3680 bb4 Handler
C:\WINDOWS\SoftwareDistribution\Download\d136d421f90e5c9613838fd5bdeacef6\img\SNAPVIEW.MSP
2008-08-16 17:11:35:578 3680 bb4 Handler MSP final command line:
DISABLESRCPROMPT=1 LOCALCACHESRCRES=0 NOLOCALCACHEROLLBACK=1
REBOOT=REALLYSUPPRESS
2008-08-16 17:11:35:984 220 d14 Report REPORT EVENT:
{CCC898C4-071D-406B-9E7E-6E6F05AB7294} 2008-08-16
17:11:30:953+0200 1 182 101 {FD238246-F66A-43CE-8D31-3A74AE471EA5}
101 80070643 MicrosoftUpdate Failure Content Install Installation
Failure: Windows failed to install the following update with error
0x80070643: Sicherheitsupdate für Microsoft Office PowerPoint 2003
(KB948988).
2008-08-16 17:11:55:484 3680 bb4 Handler MSP Error List:
2008-08-16 17:11:55:500 3680 bb4 Handler 1: 1327 2: E:\
2008-08-16 17:11:55:500 3680 bb4 Handler : MSI transaction completed.
MSI: 0x80070643, Handler: 0x8024200b, Source: No, Reboot: 0
2008-08-16 17:11:55:500 3680 bb4 Handler : WARNING: First failure for
update {DB1E4477-9A79-46CD-8166-C82D5EB227E0}, transaction error =
0x8024200b, MSI result = 0x80070643, MSI action = SetLocalCacheFolder
2008-08-16 17:11:55:500 3680 bb4 Handler : WARNING: Operation failed
at update 0, Exit code = 0x8024200B
2008-08-16 17:11:55:500 3680 bb4 Handler :::::::::
2008-08-16 17:11:55:500 3680 bb4 Handler :: END :: Handler: MSI Install
2008-08-16 17:11:55:515 3680 bb4 Handler :::::::::::::
2008-08-16 17:11:55:515 220 cb0 DnldMgr Preparing update for install,
updateId = {B6A60635-E227-4139-B7B1-694ABFBF1CBB}.101.
2008-08-16 17:11:55:531 3680 f74 Handler :::::::::::::
2008-08-16 17:11:55:531 3680 f74 Handler :: START :: Handler: MSI Install
2008-08-16 17:11:55:531 3680 f74 Handler :::::::::
2008-08-16 17:11:55:531 3680 f74 Handler : Updates to install = 1
2008-08-16 17:11:55:546 3680 f74 Handler Extracting MSP file stored in
CAB WINWORD.CAB
2008-08-16 17:11:55:765 3680 f74 Handler MSP update
{00000000-0000-0000-0000-000000000000}.0 using full-file patch
2008-08-16 17:11:55:765 3680 f74 Handler : Batch installing 1 updates
2008-08-16 17:12:00:562 220 d14 Report REPORT EVENT:
{EA5BEA54-11F4-4E97-A8C6-DCD6DFC63201} 2008-08-16
17:11:55:515+0200 1 182 101 {F6E3E036-EAF1-4423-9EAB-9359A23FCB9E}
101 80070643 MicrosoftUpdate Failure Content Install Installation
Failure: Windows failed to install the following update with error
0x80070643: Sicherheitsupdate für Access Snapshot Viewer 2003 (KB955439).
2008-08-16 17:12:01:140 3680 f74 Handler List of MSPs in transaction:
2008-08-16 17:12:01:140 3680 f74 Handler
C:\WINDOWS\SoftwareDistribution\Download\96e70d1e66e7462e93e7610f6465db91\img\WINWORD.MSP
2008-08-16 17:12:01:140 3680 f74 Handler MSP final command line:
DISABLESRCPROMPT=1 LOCALCACHESRCRES=0 NOLOCALCACHEROLLBACK=1
REBOOT=REALLYSUPPRESS
2008-08-16 17:12:21:843 3680 f74 Handler MSP Error List:
2008-08-16 17:12:21:843 3680 f74 Handler 1: 1327 2: E:\
2008-08-16 17:12:21:843 3680 f74 Handler : MSI transaction completed.
MSI: 0x80070643, Handler: 0x8024200b, Source: No, Reboot: 0
2008-08-16 17:12:21:843 3680 f74 Handler : WARNING: First failure for
update {B6A60635-E227-4139-B7B1-694ABFBF1CBB}, transaction error =
0x8024200b, MSI result = 0x80070643, MSI action = SetLocalCacheFolder
2008-08-16 17:12:21:859 3680 f74 Handler : WARNING: Operation failed
at update 0, Exit code = 0x8024200B
2008-08-16 17:12:21:859 3680 f74 Handler :::::::::
2008-08-16 17:12:21:859 3680 f74 Handler :: END :: Handler: MSI Install
2008-08-16 17:12:21:859 3680 f74 Handler :::::::::::::
2008-08-16 17:12:22:000 220 cb0 Agent *********
2008-08-16 17:12:22:000 220 c50 AU Triggering Offline detection
(non-interactive)
2008-08-16 17:12:22:000 220 c50 AU #############
2008-08-16 17:12:22:000 220 c50 AU ## START ## AU: Search for updates
2008-08-16 17:12:22:000 220 c50 AU #########
2008-08-16 17:12:22:000 220 cb0 Agent ** END ** Agent: Installing
updates [CallerId = MicrosoftUpdate]
2008-08-16 17:12:22:000 220 cb0 Agent *************
2008-08-16 17:12:22:000 2084 db4 COMAPI >>-- RESUMED -- COMAPI:
Install [ClientId = MicrosoftUpdate]
2008-08-16 17:12:22:000 2084 db4 COMAPI - Install call complete
(succeeded = 0, succeeded with errors = 0, failed = 6, unaccounted = 0)
2008-08-16 17:12:22:000 2084 db4 COMAPI - Reboot required = No
2008-08-16 17:12:22:000 2084 db4 COMAPI - WARNING: Exit code =
0x00000000; Call error code = 0x80240022
2008-08-16 17:12:22:000 2084 db4 COMAPI
2008-08-16 17:12:22:015 2084 db4 COMAPI -- END -- COMAPI: Install
[ClientId = MicrosoftUpdate]
2008-08-16 17:12:22:015 220 c50 AU <<## SUBMITTED ## AU: Search for
updates [CallId = {2B5F10AE-0020-421D-A83C-7D5EE9A5E6EC}]
2008-08-16 17:12:22:015 220 d14 Agent *************
2008-08-16 17:12:22:015 220 d14 Agent ** START ** Agent: Finding
updates [CallerId = AutomaticUpdates]
2008-08-16 17:12:22:015 220 d14 Agent *********
2008-08-16 17:12:22:015 220 d14 Agent * Online = No; Ignore download
priority = No
2008-08-16 17:12:22:015 2084 db4 COMAPI -
2008-08-16 17:12:22:015 220 d14 Agent * Criteria = "IsHidden=0 and
IsInstalled=0 and DeploymentAction='Installation' and IsAssigned=1 or
IsHidden=0 and IsPresent=1 and DeploymentAction='Uninstallation' and
IsAssigned=1 or IsHidden=0 and IsInstalled=1 and
DeploymentAction='Installation' and IsAssigned=1 and RebootRequired=1 or
IsHidden=0 and IsInstalled=0 and DeploymentAction='Uninstallation' and
IsAssigned=1 and RebootRequired=1"
2008-08-16 17:12:22:031 220 d14 Agent * ServiceID =
{7971F918-A847-4430-9279-4A52D1EFE18D}
2008-08-16 17:12:22:031 220 d14 Agent * Search Scope = {Machine}
2008-08-16 17:12:55:343 220 d14 Agent * Added update
{A8D2EE29-B6E4-481F-AC97-3E57703E663A}.101 to search result
2008-08-16 17:12:55:343 220 d14 Agent * Added update
{AE97D343-7C0D-4C06-9A62-67EFF01890A9}.100 to search result
2008-08-16 17:12:55:343 220 d14 Agent * Added update
{7FB0A046-FEA7-4975-9EA5-2BB4E15D80B3}.101 to search result
2008-08-16 17:12:55:343 220 d14 Agent * Added update
{FD238246-F66A-43CE-8D31-3A74AE471EA5}.101 to search result
2008-08-16 17:12:55:343 220 d14 Agent * Added update
{F6E3E036-EAF1-4423-9EAB-9359A23FCB9E}.101 to search result
2008-08-16 17:12:55:343 220 d14 Agent * Added update
{285601B8-5C07-4856-B4E6-847F053BE4CB}.101 to search result
2008-08-16 17:12:55:343 220 d14 Agent * Found 6 updates and 37
categories in search; evaluated appl. rules of 290 out of 845 deployed
entities
2008-08-16 17:12:55:406 220 d14 Agent *********
2008-08-16 17:12:55:406 220 d14 Agent ** END ** Agent: Finding
updates [CallerId = AutomaticUpdates]
2008-08-16 17:12:55:421 220 d14 Agent *************
2008-08-16 17:12:55:421 220 b70 AU >>## RESUMED ## AU: Search for
updates [CallId = {2B5F10AE-0020-421D-A83C-7D5EE9A5E6EC}]
2008-08-16 17:12:55:437 220 b70 AU # 6 updates detected
2008-08-16 17:12:55:421 220 d14 Report REPORT EVENT:
{8C2C1B1C-5AE0-4EA8-9315-40FD141BAA72} 2008-08-16
17:12:21:875+0200 1 182 101 {285601B8-5C07-4856-B4E6-847F053BE4CB}
101 80070643 MicrosoftUpdate Failure Content Install Installation
Failure: Windows failed to install the following update with error
0x80070643: Sicherheitsupdate für Microsoft Office Word 2003 (KB954464).
2008-08-16 17:12:55:437 220 b70 AU #########
2008-08-16 17:12:55:437 220 b70 AU ## END ## AU: Search for updates
[CallId = {2B5F10AE-0020-421D-A83C-7D5EE9A5E6EC}]
2008-08-16 17:12:55:437 220 b70 AU #############
2008-08-16 17:12:55:437 220 b70 AU Setting AU scheduled install time to
2008-08-16 18:00:00


Leider ist das für mich "zu hoch", ich sehe wohl Fehlermeldungen aber
die sagen mir nichts. Ich habe auch schon den WU Client von hand mit
/wufroce neu installiert. Zusàtzlich habe ich folgendes CMD-File
ausgeführt, das eigentlich in Problemfàllen bis jetzt meistens geholfen hat:

net stop cryptsvc

net stop bits

net stop wuauserv

regsvr32 acelpdec.ax /s

regsvr32 actxprxy.dll /s

regsvr32 atl.dll /s

regsvr32 browseui.dll /i /s

regsvr32 cdfview.dll /s

regsvr32 comcat.dll /s

regsvr32 corpol.dll /s

regsvr32 crswpp.dll /s

regsvr32 cryptdlg.dll /s

regsvr32 cryptext.dll /s

regsvr32 danim.dll /s

regsvr32 datime.dll /s

regsvr32 dispex.dll /s

regsvr32 dssenh.dll /s

regsvr32 dxmasf.dll /s

regsvr32 dxtmsft.dll /s

regsvr32 dxtrans.dll /s

regsvr32 fpwpp.dll /s

regsvr32 ftpwpp.dllL /s

regsvr32 gpkcsp.dll /s

regsvr32 hlink.dll /s

regsvr32 icmfilter.dll /s

regsvr32 iepeers.dll /s

regsvr32 iesetup.dll /i /s

regsvr32 ils.dll /s

regsvr32 imgutil.dll /s

regsvr32 inetcfg.dll /s

regsvr32 inetcomm.dll /s

regsvr32 initpki.dll /s

regsvr32 inseng.dll /s

regsvr32 jscript.dll /s

regsvr32 licmgr10.dll /s

regsvr32 lmrt.dll /s

regsvr32 mlang.dll /s

regsvr32 mobsync.dll /s

regsvr32 msapsspc.dll /SspcCreateSspiReg /s

regsvr32 msdart.dll /s

regsvr32 mshtml.dll /i /s

regsvr32 mshtmled.dll /s

regsvr32 msident.dll /s

regsvr32 msieftp.dll /s

regsvr32 msjava.dll /s

regsvr32 msnsspc.dll /SspcCreateSspiReg /s

regsvr32 msoeacct.dll /s

regsvr32 msr2c.dll /s

regsvr32 msrating.dll /s

regsvr32 mssip32.dll /s

regsvr32 mssip32.dll /s

regsvr32 msxml.dll /s

regsvr32 msxml2.dll /s

regsvr32 msxml3.dll /s

regsvr32 msxml4.dll /s

regsvr32 msxml4r.dll /s

regsvr32 ntdll.dll /s

regsvr32 occache.dll /i /s

regsvr32 oleaut32.dll /s

regsvr32 plugin.ocx /s

regsvr32 pngfilt.dll /s

regsvr32 postwpp.dll /s

regsvr32 qmgr.dll /s

regsvr32 qmgrprxy.dll /s

regsvr32 rsabase.dll /s

regsvr32 rsaenh.dll /s

regsvr32 sccbase.dll /s

regsvr32 scrobj.dll /s

regsvr32 scrrun.dll mstinit.exe /setup /s

regsvr32 sendmail.dll /s

regsvr32 shdoc401.dll /i /s

regsvr32 shdocvw.dll /i /s

regsvr32 shell32.dll /i /s

regsvr32 slbcsp.dll /s

regsvr32 softpub.dll /s

regsvr32 thumbvw.dll /s

regsvr32 urlmon.dll /i /s

regsvr32 vbscript.dll /s

regsvr32 webcheck.dll /s

regsvr32 webpost.dll /s

regsvr32 wintrust.dll /s

regsvr32 wpwizdll.dll /s

regsvr32 wshext.dll /s

regsvr32 wuapi.dll /s

regsvr32 wuaueng.dll /s

regsvr32 wuaueng1.dll /s

regsvr32 wuauserv.dll /s

regsvr32 wucltui.dll /s

regsvr32 wups.dll /s

regsvr32 wups2.dll /s

regsvr32 wuweb.dll /s

regsvr32 asctrls.ocx /s

regsvr32 Daxctle.ocx /s

regsvr32 hhctrl.ocx /s

regsvr32 mmefxe.ocx /s

regsvr32 msdxm.ocx /s

regsvr32 tdc.ocx /s

regsvr32 wshom.ocx /s

regsvr32 xmsconf.ocx /s

regsvr32 l3codecx.ax /s

regsvr32 mpg4ds32.ax /s

regsvr32 voxmsdec.ax /s

ren %windir%\system32\catroot catroot.old

ren %windir%\system32\catroot2 catroot2.old

ren %windir%\system32\SoftwareDistribution SoftwareDistribution2.old

ren %windir%\SoftwareDistribution SoftwareDistribution.old

net start cryptsvc

net start bits

net stop wuauserv

Nun weiss ich nicht mehr weiter...
Hoffe jemand kennt noch weitere Lösungswege..

Marius
 

Lesen sie die antworten

#1 Marius Appenzeller
16/08/2008 - 18:38 | Warnen spam
Das Problem hat sich gelöst...

Ich hatte bei Aufràumarbeiten mit meinen Harddisks und Partitionen
versehentlich den Ordner MSOCache verschoben und vergessen mit dem Tool
MOLIST den Installationpfad zu verschieben... gemerkt-getan und alles
rattert wie gewohnt...

Mfg
Marius

Marius Appenzeller schrieb:
Hallo NG

Mein System: XP Pro 32bit SP3 autom. Microsoft-Updates ein (IE7 NICHT
installiert)
Seit kurzem habe ich folgendes Problem mit Updates.

Die letzten Updates (vom letzten Patchday) werden heruntergeladen aber
nicht installiert.



[...]
Nun weiss ich nicht mehr weiter...
Hoffe jemand kennt noch weitere Lösungswege..

Marius

Ähnliche fragen